{"data":{"norad_id":47750,"epoch":"2026-05-25T04:49:20.646624Z","epoch_age_seconds":61721,"freshness":"FRESH","line1":"1 47750U 21017AE  26145.20093341  .00000383  00000+0  24105-4 0  9993","line2":"2 47750  53.1594 197.6766 0001226  85.9226 274.1916 15.31692557289718","mean_motion":15.31692557,"eccentricity":0.0001226,"inclination_deg":53.1594,"raan_deg":197.6766,"arg_perigee_deg":85.9226,"mean_anomaly_deg":274.1916,"bstar":2.4105e-5,"rev_number":28971,"period_min":94.013644802219,"perigee_km":469.92250747141,"apogee_km":471.60185755097,"semimajor_km":6848.8991825112,"source":"CELESTRAK","updated_at":"2026-05-25T13:38:16.567975Z"}}